sat.trackr.live / text

‹ back to catalog

STARLINK-5447

NORAD 54779 · 2022-175X

PAYLOAD ACTIVE UNKNOWN

§ Identity

Operator
Country
US
Launch date
2022-12-17
Launch site
AFETR
Launch vehicle
Mass (kg)
RCS (m²)

Purposes: comms

External: N2YO · Heavens-Above · Gunter

§ Orbital elements

Epoch: 2026-09-20T21:44:32.625888Z

Period
93.85 min
Inclination
53.1587°
Eccentricity
0.0001381
Mean motion
15.34392406 rev/d
Perigee alt
461.8 km
Apogee alt
463.7 km
Semi-major
6,840.9 km
B*
5.7124e-5
RAAN
217.8485°
Arg perigee
91.4549°
Mean anomaly
268.6612°
Rev number
20,980

§ Raw data

STARLINK-54471 54779U 22175X   26263.90593317  .00001554  00000+0  57124-4 0  99922 54779  53.1587 217.8485 0001381  91.4549 268.6612 15.34392406209800

JSON: /api/v1/satellites/54779 · /tle

For live sub-satellite position, see the globe view (requires WebGL).

§ Visibility from observer

Set your observer location to see the next 7 days of passes ≥ 10°. The values pass through the URL so the page stays shareable.

No JS? Fill the form by hand. The geolocation button needs JavaScript.